Location: Newark
(25.4297°S, 49.2719°W)
Time: 02:04:21
(UTC+00:00)

Vanguard 1 Rocket - Pass Details

Date: 24 November 2019
Orbit: 650 x 4226 km, 34.3° (Epoch: 07 December)

Event Time Altitude Azimuth Distance (km) Brightness Sun altitude
Rises 17:33:03 0° 275° (W) 6,671 12.3 55.4°
Reaches altitude 10° 17:36:51 10° 272° (W) 6,028 12.4 54.6°
Maximum altitude 17:58:48 70° 189° (S) 4,308 11.7 49.6°
Drops below altitude 10° 18:24:51 10° 104° (ESE) 6,910 11.6 43.7°
Sets 18:29:39 0° 101° (ESE) 7,625 11.7 42.7°
